Location: Columbus
(29.5618°N, 96.6770°W)
Time: 05:09:12
(UTC-05:00)

Daily predictions for brighter satellites

Satellite Brightness Start Highest point End
(mag) Time Altitude Azimuth Time Altitude Azimuth Time Altitude Azimuth
FALCON 9 R/B 4.4 04:02:40 26° ESE 04:02:40 26° ESE 04:09:20 10° ENE
Cosmos 2227 Rocket 4.5 04:21:39 17° NNE 04:21:39 17° NNE 04:22:53 10° NNE
Cosmos 2297 Rocket 4.1 04:29:44 24° NNE 04:29:44 24° NNE 04:31:50 10° NNE
USA 215 3.9 04:22:15 10° ESE 04:28:30 49° NE 04:28:55 49° NNE
Gbstr 26 Del rocket 4.4 04:41:08 78° E 04:41:08 78° E 04:48:47 10° SE
Okean O Rocket 4.2 04:43:28 10° NNE 04:44:06 14° NNE 04:44:06 14° NNE
NOSS 3-2 (C) 4.3 04:42:31 10° NNW 04:50:13 67° ENE 04:58:20 10° SE
PAYLOAD B 4.1 05:08:00 10° NNE 05:13:09 77° NNW 05:13:09 77° NNW
ADEOS II 2.7 05:19:23 10° NNE 05:24:32 54° E 05:29:39 10° S
OTV 4 3.3 05:30:22 15° ESE 05:30:22 15° ESE 05:30:55 10° ESE
Cosmos 1000 Rocket 4.4 05:26:44 16° S 05:31:59 81° W 05:38:21 10° N
ATLAS 5 CENTAUR R/B 2.4 05:30:34 33° NW 05:33:31 67° WSW 05:40:02 10° SSE
CZ-4B R/B 3.2 05:29:57 10° N 05:35:15 54° WNW 05:35:34 53° W
Cosmos 2237 Rocket 3.4 05:38:15 25° SSW 05:38:15 25° SSW 05:40:45 10° S
CZ-4B R/B 4.3 05:32:42 10° N 05:35:14 30° NNW 05:35:14 30° NNW
Cosmos 2227 4.3 05:33:12 20° S 05:37:17 76° ESE 05:43:02 10° NNE
Meteor 2-4 Rocket 4.1 05:40:14 42° WNW 05:40:14 42° WNW 05:45:36 10° N
Cosmos 2016 Rocket 4.3 05:36:35 10° N 05:42:52 68° E 05:49:03 10° SSE
Cosmos 292 Rocket 3.6 05:40:53 10° NNW 05:45:44 71° WSW 05:50:32 10° S
GOES 2 Rocket 3.8 05:44:17 43° W 05:46:19 78° S 05:53:46 10° E
Cosmos 2173 Rocket 3.8 05:41:59 10° N 05:48:05 76° W 05:54:14 10° S
Cosmos 967 Rocket 4.5 05:45:13 31° SW 05:48:19 65° WNW 05:54:43 10° NNE
Meteor PRIRODA 3.7 05:45:10 10° NNE 05:48:53 77° ESE 05:51:32 18° S
Cosmos 2058 Rocket 2.9 05:44:45 10° N 05:49:05 72° W 05:53:26 10° S
Hubble Space Telescope 2.8 05:50:07 16° S 05:50:07 16° S 05:51:56 10° SSE
Cosmos 990 Rocket 3.9 05:46:28 24° SSW 05:49:43 75° WNW 05:54:58 10° NNE
MOS 1 Rocket 4.1 05:44:53 10° NNE 05:49:48 57° E 05:54:56 10° S
Thor Agena Rocket 3.5 05:48:38 10° S 05:53:55 82° WSW 05:59:14 10° NNW
Cosmos 1459 Rocket 3.9 05:47:38 10° NNW 05:53:56 66° W 06:00:07 10° S
Okean-O 2.5 05:50:29 10° N 05:54:54 73° WNW 05:59:06 11° SSW
Aureole 2 Rocket 2.5 05:51:51 10° N 05:55:03 63° ENE 05:57:59 10° SSE
Cosmos 2123 Rocket 4.0 05:48:55 10° S 05:55:05 83° E 06:01:16 10° N
SL-16 R/B 2.1 05:51:08 10° NNW 05:56:48 76° WSW 06:02:26 10° SSE
COBE Rocket 4.0 05:54:22 10° NNE 05:59:05 70° E 06:03:41 10° S
Meteor 2-9 Rocket 4.3 05:54:09 10° NNW 05:59:41 52° W 06:05:18 10° SSW
Meteor 2-15 4.4 05:54:25 10° SSW 06:00:24 62° W 06:06:23 10° N
Delta 142 3.6 06:03:25 33° W 06:05:23 63° SSW 06:09:32 10° ESE
Fermi 4.3 06:08:01 30° WSW 06:09:33 45° S 06:13:26 10° ESE
Cosmos 1626 Rocket 3.5 06:06:09 10° SSW 06:10:28 58° W 06:14:46 10° N
Cosmos 2297 Rocket 4.2 06:11:35 11° NW 06:11:35 11° NW 06:12:16 10° NW
USA 215 3.8 06:05:37 10° S 06:11:29 35° SW 06:16:19 15° WNW
OAO 2 Rocket 3.8 06:15:01 22° W 06:18:19 54° N 06:23:32 10° ENE
CZ-3A R/B 2.7 06:12:29 17° WSW 06:19:27 43° S 06:22:24 10° ESE
ADEOS Rocket 3.9 06:19:06 10° N 06:24:55 30° WNW 06:30:15 10° SW
Cosmos 2098 Rocket 3.6 06:20:57 10° NNW 06:25:16 50° W 06:30:45 10° SSW
Delta 2 Rocket 3.2 06:24:08 17° WNW 06:27:02 68° NNE 06:30:32 10° ESE
Cosmos 1125 Rocket 3.5 06:22:08 10° SSW 06:27:19 90° W 06:32:33 10° NNE
CENTAUR R/B 3.2 06:24:02 10° NNW 06:32:10 89° ENE 06:40:32 10° SSE
Cosmos 1602 Rocket 4.4 06:30:45 10° SW 06:34:37 29° W 06:38:29 10° NNW
Cosmos 1758 Rocket 4.5 06:38:14 10° S 06:42:26 52° E 06:46:39 10° NNE
SKYMED 2 4.2 06:38:31 10° SSE 06:42:47 63° ENE 06:47:04 10° N
Cosmos 1603 3.7 06:38:43 10° NNW 06:44:26 83° WSW 06:50:05 10° SSE
Cosmos 2263 Rocket 2.4 06:39:05 10° SSW 06:44:38 77° ESE 06:50:12 10° NNE
Cosmos 2233 Rocket 4.0 06:43:37 10° N 06:49:52 83° W 06:56:03 10° S
CZ-3 Stage 3 4.0 06:42:39 10° WSW 06:51:25 54° SSE 06:54:32 10° E
NOAA 6 4.4 06:47:09 10° N 06:52:04 45° WNW 06:56:58 10° SW
Meteor 1-31 Rocket 4.0 06:50:44 10° NNW 06:53:47 22° WNW 06:56:51 10° SW
Iridium 4 Rocket 3.3 06:54:52 10° S 06:59:55 78° W 07:04:32 10° N
